Flight Track Log - Related Links

Times and Time Zones

All times are in EDT time to prevent confusion due to time zone crossing. See the RPA3275 flight status page for this flight to view local times or setup timezone preferences in your user account.

Time Position Orientation Groundspeed Altitude Reporting Facility
EDT Latitude Longitude Course Direction KTS MPH feet Rate Location/Type
Fri 07:11:52 AM 42.7653 -73.8061 220° Southwest 145 167 1,300  Level Boston Center
Fri 07:12:58 AM 42.8003 -73.8436 322° Northwest 210 242 3,200 2,014 Climbing Boston Center
Fri 07:14:00 AM 42.7333 -74.1361 270° West  Level FlightAware Approximate
Fri 07:14:15 AM 42.7839 -73.9706 260° West 283 326 6,100  Level Boston Center
Fri 07:15:00 AM 42.7333 -74.2482 270° West  Level FlightAware Approximate
Fri 07:15:15 AM 42.7719 -74.0806 262° West 293 337 8,900  Level Boston Center
Fri 07:16:00 AM 42.6922 -74.3610 220° Southwest  Level FlightAware Approximate
Fri 07:16:15 AM 42.7600 -74.1850 261° West 306 352 10,900  Level Boston Center
Fri 07:17:15 AM 42.7331 -74.3197 255° West 335 386 13,200 2,100 Climbing Boston Center
Fri 07:18:15 AM 42.6628 -74.4053 222° Southwest 350 403 15,100 1,450 Climbing Boston Center
Fri 07:19:15 AM 42.5692 -74.5094 219° Southwest 391 450 16,100 500 Climbing Boston Center
Fri 07:20:15 AM 42.4903 -74.5997 220° Southwest 410 472 16,100  Level Boston Center
Fri 07:21:15 AM 42.3964 -74.7089 221° Southwest 415 478 16,100 -50 Level Boston Center
Fri 07:22:15 AM 42.3194 -74.8044 223° Southwest 410 472 16,000  Descending Boston Center
Fri 07:23:54 AM 42.1700 -74.9625 218° Southwest 410 472 16,100 38 Climbing New York Center
Fri 07:24:54 AM 42.0753 -75.0458 213° Southwest 415 478 16,100  Level New York Center
Fri 07:25:55 AM 41.9789 -75.1231 211° Southwest 410 472 16,100  Level New York Center
Fri 07:26:53 AM 41.8953 -75.1928 212° Southwest 402 463 16,100 -50 Level New York Center
Fri 07:27:54 AM 41.7986 -75.2700 211° Southwest 402 463 16,000 -50 Descending New York Center
Fri 07:28:54 AM 41.6911 -75.3572 211° Southwest 414 476 16,000 -400 Level New York Center
Fri 07:29:54 AM 41.5964 -75.4339 211° Southwest 414 476 15,200 -1,587 Descending New York Center
Fri 07:30:55 AM 41.5128 -75.5000 211° Southwest 409 471 12,800 -1,537 Descending New York Center
Fri 07:31:55 AM 41.4203 -75.5736 211° Southwest 398 458 12,100 -350 Descending New York Center
Fri 07:32:55 AM 41.3253 -75.6497 211° Southwest 398 458 12,100  Level New York Center
Fri 07:33:53 AM 41.2156 -75.6889 195° South 382 440 12,100  Level New York Center
Fri 07:34:54 AM 41.1092 -75.6894 180° South 380 437 12,100  Level New York Center
Fri 07:35:54 AM 41.0072 -75.6875 179° South 380 437 12,100 -50 Level New York Center
Fri 07:36:54 AM 40.9072 -75.6883 180° South 386 444 12,000 -50 Descending New York Center
Fri 07:37:54 AM 40.8011 -75.6864 179° South 386 444 12,000  Level New York Center
Fri 07:38:56 AM 40.6842 -75.6861 180° South 386 444 12,000  Level New York Center
Fri 07:39:53 AM 40.5831 -75.6625 170° South 386 444 12,000 -610 Level New York Center
Fri 07:40:54 AM 40.5144 -75.5592 131° Southeast 357 411 10,800 -984 Descending New York Center
Fri 07:41:55 AM 40.4644 -75.4575 123° Southeast 334 384 10,000 -600 Descending New York Center
Fri 07:42:54 AM 40.3961 -75.3931 144° Southeast 315 362 9,600 -807 Descending New York Center
Fri 07:43:54 AM 40.3233 -75.3364 149° Southeast 310 357 8,400 -1,140 Descending New York Center
Fri 07:44:55 AM 40.2583 -75.2886 151° Southeast 304 350 7,300 -694 Descending New York Center
Fri 07:45:55 AM 40.1772 -75.2289 151° Southeast 303 349 7,000 -407 Descending New York Center
Fri 07:46:53 AM 40.1125 -75.1814 151° Southeast 297 342 6,500 -566 Descending New York Center
Fri 07:47:41 AM 40.0500 -75.1333 150° Southeast 281 323 6,000 -579 Descending Philadelphia TRACON
Fri 07:48:47 AM 40.0000 -75.0667 134° Southeast 197 227 5,400 -1,048 Descending Philadelphia TRACON
Fri 07:49:47 AM 39.9833 -75.0167 113° Southeast 226 260 3,800 -1,650 Descending Philadelphia TRACON
Fri 07:50:47 AM 39.9167 -75.0333 191° South 225 259 2,100 -1,700 Descending Philadelphia TRACON

Login

Don't have an account? Register now (free) for customized features, flight alerts, and more!